Погода в железнодорожной станции Тальцы

Россия / Новгородская область     59°11′42″N   32°53′15″E
В апреле 2022 года жителям России запретили посещать сайт meteo.paraplan.net по решению Генеральной прокуратуры. Аудитория сайта уменьшилась в 10 раз. Владельцы сайта не видят смысла в поддержке погодного сервера в таких условиях. Сайт будет закрыт в октябре.
темп.,
°C
ветер,
м/с
пор.,
м/с
влажн.,
%
обл.,
%
осадки,
мм/ч
давл.,
гПа
погр.,
м
30 сентября, пт
пт3000:00+6юв389783 0.1 1007288
03:00+8ююв389783 0.1 1008417
06:00+8ююз389591 0.1 1008395
09:00+9ююз39918 0.1 1009546
12:00+11ююз467553 0.0 1010968
15:00+12ююз476449 0.0 10111243
18:00+10юз3879100 0.1 1012451
21:00+6юз27979 0.5 1014176
1 октября, сб
сб100:00+5ююз279710 0.0 1015175
03:00+5ююз27965 0.0 1015159
06:00+4ююз269717 0.0 1016136
09:00+6ююз2591100 0.0 1016193
12:00+10ююз2375100 0.0 1015555
15:00+12ююв1165100 0.0 1014888
18:00+8всв2283100 0.0 101218
21:00+7св2491100 0.0 101175
2 октября, вс
вс200:00+5ссв2596100 0.0 1010108
03:00+6с2892100 0.0 1009233
06:00+4с289790 0.0 1008206
09:00+6с378653 0.0 1009271
12:00+10с466617 0.0 1009909
15:00+11с355711 0.0 10091238
18:00+7с2578100 0.0 100998
21:00+5с2488100 0.0 101096
3 октября, пн
пн300:00+4св269165 0.0 1010139
03:00+3ссв2596100 0.0 1010106
06:00+4св31088100 0.0 1009335
09:00+5ссв31082100 0.1 1007537
12:00+5ссв41193100 3.0 1005635
15:00+5с51295100 7.3 1002711
18:00+5с51296100 6.3 999830
21:00+5с51396100 12.6 995782
4 октября, вт
вт400:00+6ссз41097100 7.9 990570
03:00+5ююз4698100 9.1 991447
06:00+5ююв5996100 0.2 992916
09:00+4ю51097100 0.6 995797
12:00+5ю51197100 0.9 9971117
15:00+6ююз51296100 2.8 9991298
18:00+6юз51195100 2.6 10021165
21:00+6юз51094100 4.9 10041087